This is the latest recevied weather packets stored in our database for station/object N9WHM. If no packets are shown the sender has not sent any weather packets the latest 1 day(s).
| Time | Temp. | Humidity | Pressure | Rain* | Wind** | Luminosity | Snow |
|---|---|---|---|---|---|---|---|
| 1778043234 | 6.11° C | 45% | 1015.3 hPa | 0 mm | 0 m/s | 0 W/m² | - |
| 1778042930 | 6.11° C | 45% | 1015.2 hPa | 0 mm | 0 m/s | 0 W/m² | - |
| 1778042629 | 6.11° C | 45% | 1015.1 hPa | 0 mm | 0.89 m/s, 29° | 0 W/m² | - |
| 1778042325 | 6.67° C | 44% | 1015.3 hPa | 0 mm | 0 m/s | 0 W/m² | - |
| 1778042022 | 6.67° C | 44% | 1015.3 hPa | 0 mm | 0.89 m/s, 27° | 0 W/m² | - |
| 1778041721 | 6.67° C | 44% | 1015.1 hPa | 0 mm | 0 m/s | 0 W/m² | - |
| 1778041419 | 6.67° C | 44% | 1015.2 hPa | 0 mm | 0 m/s | 0 W/m² | - |
| 1778041118 | 6.67° C | 44% | 1015.2 hPa | 0 mm | 0.89 m/s, 37° | 0 W/m² | - |
| 1778040814 | 6.67° C | 44% | 1015.2 hPa | 0 mm | 0.45 m/s, 12° | 0 W/m² | - |
| 1778040511 | 6.67° C | 43% | 1015.2 hPa | 0 mm | 0.89 m/s, 13° | 0 W/m² | - |
| 1778040209 | 6.67° C | 43% | 1015.3 hPa | 0 mm | 1.34 m/s, 9° | 0 W/m² | - |
| 1778039905 | 7.22° C | 43% | 1015.4 hPa | 0 mm | 1.34 m/s, 3° | 0 W/m² | - |
| 1778039603 | 7.22° C | 43% | 1015.2 hPa | 0 mm | 0.89 m/s, 9° | 0 W/m² | - |
| 1778039300 | 7.22° C | 43% | 1015 hPa | 0 mm | 0.45 m/s, 7° | 0 W/m² | - |
| 1778038997 | 7.22° C | 42% | 1015.1 hPa | 0 mm | 0.89 m/s, 10° | 0 W/m² | - |
| 1778038694 | 7.78° C | 42% | 1014.9 hPa | 0 mm | 1.34 m/s, 354° | 0 W/m² | - |
| 1778038391 | 7.78° C | 41% | 1015 hPa | 0 mm | 1.79 m/s, 6° | 0 W/m² | - |
| 1778038088 | 7.78° C | 41% | 1015 hPa | 0 mm | 0.45 m/s, 48° | 0 W/m² | - |
| 1778037784 | 8.33° C | 41% | 1014.8 hPa | 0 mm | 0.45 m/s, 43° | 0 W/m² | - |
| 1778037481 | 8.33° C | 40% | 1014.5 hPa | 0 mm | 0 m/s | 0 W/m² | - |
| 1778037178 | 8.33° C | 39% | 1014.9 hPa | 0 mm | 1.34 m/s, 24° | 0 W/m² | - |
| 1778036876 | 8.33° C | 40% | 1014.5 hPa | 0 mm | 0.89 m/s, 50° | 0 W/m² | - |
| 1778036574 | 8.33° C | 39% | 1014.5 hPa | 0 mm | 0.89 m/s, 25° | 0 W/m² | - |
| 1778036271 | 8.33° C | 39% | 1014.5 hPa | 0 mm | 1.34 m/s, 35° | 0 W/m² | - |
| 1778035967 | 8.33° C | 39% | 1014.3 hPa | 0 mm | 0 m/s | 0 W/m² | - |
* Rain latest hour (hover to see other rain measurements)
** Current wind speed in m/s (hover to see current wind gust speed)